Погода Илирней

Погода Илирней : погода сейчас, прогноз погоды и архив. Всё, что Вы хотите узнать о погоде Илирней!

Хотите узнать прогноз погоды Илирней? Тогда Вам сюда: Погода Илирней

Поиск расширенной информации на нашем сайте:

Полезная информация: купить виагру Москва

Другие новости

Новости СМИ2

Главная страница сайта

Новости сайта

02.10.2013

Напоминаем, что на нашем новом сайте вы можете получить высокодетализированные прогнозы погоды по пунктам России, СНГ и мира (включающие важные для авиации метеовеличины, такие как направление и скорость ветра, видимость, явления погоды, количество и форма облачности, нижняя и верхняя граница облачности), а также ознакомиться с разнообразными материалами по авиационной метеорологии и подборкой полезных ссылок на эту тему.

Сайт Метеоцентр.Азия посвящён разработке технологий оптимизации авиаметеорологического обслуживания, включая проектирование и перспективное создание нескольких автоматизированных авиаметеорологических систем:
- система выпуска высокодетальных прогностических карт явлений погоды для нижнего воздушного пространства по России и ближнему зарубежью;
- система верификации прогнозов TAF (выпускаемых синоптиками официальных АМСГ РФ и ближнего зарубежья) и AUTOTAF (выпускаемых сайтом Метеоцентр.Азия) - выявление ошибок, онлайн-сопоставление с фактической погодой METAR, автоматическое внесение коррективов в прогнозы при резком отклонении фактической погоды от прогноза, подсчёт оправдываемости прогнозов по элементам и в целом;
- система обработки, анализа и отображения авиаметеорологической информации для применения провайдерами метеорологической информации.

Рекомендуем: Что такое страховка зеленая карта.

Погода Илирней - сегодня

Время (UTC), дата Ветер
(°,м/с) 
Видим.   Явления Облачность Т
(°С)
Тd
(°С)
f(%) Тe
(°С)
Pmin
(гПа)
dP
(гПа)
Po
(мм)
O2
(г/м3)
Тmin Tmax R s Состояние
почвы
18 26.03.17 тихо () {01}  20000 м    ясно 
-28 -39.4 33 -28  1023.5  0.1  731  330           
21 26.03.17 тихо () {01}  20000 м    ясно 
-27.6 -30.6 76 -28  1023.4  -0.1  731  329  -28.9      20  неравномерный
сухой снег
100% 
00 27.03.17 140 (ЮВ) 1{01}  20000 м    ясно 
-25.3 -28.4 75 -26  1022  -0.7  730  326           
03 27.03.17 тихо () {01}  20000 м    ясно 
-23.2 -26.4 75 -23  1021.1  -0.6  730  323           
06 27.03.17 тихо () {02}  20000 м    ясно 
-22.8 -26 75 -23  1020  -1  729  322           
09 27.03.17 тихо () {03}  20000 м    ясно 
-23.6 -26.8 75 -24  1020.8  0.7  730  323    -22.8       
12 27.03.17 120 (ЮВ) 1{01}  20000 м    ясно 
-26.8 -30.7 69 -27  1021.8  0.3  730  328           
15 27.03.17 тихо () {01}  20000 м    ясно 
-27.4 -31.2 70 -27  1022.2  0.4  730  329           
18 27.03.17 тихо () {01}  20000 м    ясно 
-27.6 -31.5 69 -28  1022.7  0.2  730  329           
21 27.03.17 тихо () {01}  20000 м    ясно 
-27 -30.9 69 -27  1022.6  0.2  730  328  -27.6      20  неравномерный
сухой снег
100% 
00 28.03.17 тихо () {01}  20000 м    ясно 
-23.5 -29.1 60 -24  1021.7  -0.2  730  324           
03 28.03.17 тихо () {01}  20000 м    ясно 
-17.4 -24.3 55 -17  1019.4  -1  729  316           
06 28.03.17 тихо () {03}  20000 м    ясно 
-18.3 -24.2 60 -18  1019.5  -0.1  729  317           
09 28.03.17 тихо () {02}  20000 м    ясно 
-24.7 -27.1 80 -25  1021.9  730  325    -17       
12 28.03.17 тихо () {03}  20000 м    ясно 
-30 -32.3 80 -30  1023.5  0.5  731  333           
15 28.03.17 тихо () {02}  20000 м    ясно 
-30.4 -32.7 80 -30  1023.3  -0.2  730  333           
18 28.03.17 тихо () {01}  20000 м    ясно 
-30.6 -32.9 80 -31  1024.1  0.6  731  334           
00 29.03.17 тихо () {00}  20000 м    ясно 
-27.8 -30.3 79 -28  1024  0.2  731  330           
03 29.03.17 тихо () {01}  20000 м    ясно 
-26.1 -28.5 80 -26  1023.5  731  328           
06 29.03.17 тихо () {01}  20000 м    ясно 
-19.2 -21.8 80 -19  1023.5  1.2  732  319           
09 29.03.17 тихо () {01}  20000 м    ясно 
-19.6 -22.2 80 -20  1025.2  1.4  733  320    -19.2       
12 29.03.17 тихо () {02}  20000 м    ясно 
-23.4 -25.9 80 -23  1027.5  1.7  734  325           
15 29.03.17 тихо () {01}  20000 м    ясно 
-23.9 -26.4 80 -24  1028  0.3  735  326           
18 29.03.17 тихо () {02}  20000 м    ясно 
-24.6 -27 81 -25  1028.6  0.1  735  327           
21 29.03.17 тихо () {02}  20000 м    ясно 
-24 -26.5 80 -24  1027.8  -0.3  734  326  -24.6      20  неравномерный
сухой снег
100% 
Время (UTC), дата Ветер
(°,м/с) 
Видим.   Явления Облачность Т
(°С)
Тd
(°С)
f(%) Тe
(°С)
Pmin
(гПа)
dP
(гПа)
Po
(мм)
O2
(г/м3)
Тmin Tmax R s Состояние
почвы

Для получения пояснительной информации подведите курсор к названию столбца.

ПОГОДА Илирней - архив

Всё, что Вы хотите узнать о погоде Илирней - удобно и подробно!

Выберите нужную дату (начиная с 1 января 2015* года) и нажмите кнопку "Найти".
Будут отображены архивные сводки погоды по пункту Илирней, начиная с указанной даты.


Отображать данные в формате CSV (для использования в таблицах Excel)


Внимание! Наш архив погоды предназначен исключительно для личного некоммерческого использования в познавательных целях. Если Вам необходимы официальные справки о состоянии погоды (для производственных, юридических, коммерческих и т.п. целей), обращайтесь в органы Росгидромета.

*Примечание: данная дата относится к архиву по метеостанциям СССР (Россия, СНГ, Балтия).
Архив по метеостанциям Зарубежной Европы и Азии (кроме Китая) хранится 10 дней, по другим регионам земного шара (Китай, Африка, Америка, Австралия, Океания) - 1 день.

Илирней - район местоположения метеостанции


Название, широта, долгота, высота метеостанции:
Илирней 67.2°ш. 168°д. 353 м над ур. моря [Российская Федерация]

Дополнительная информация

В oтличие oт бoльшинства пoгoдных сайтoв мы публикуем пoдрoбную метеoинфoрмацию в детальнoм прoфессиoнальнoм фoрмате.

Характеристики температуры и влажнoсти вoздуха измеряются на высoте 2 м в тени вдали oт зданий и деревьев.
Скoрoсть ветра измеряется на высoте 10 м (на урoвне рoста челoвека скoрoсть ветра ниже в 1.5-2 раза). Если метеoстанция нахoдится в гoрoде или в лесу, тo скoрoсть ветра занижена на 2-4 м/с пo сравнению с oткрытым местoм. Скoрoсть ветра над акватoриями крупных рек и oзёр, а также на вершинах хoлмoв на 2-5 м/с выше, чем в oбычных услoвиях.
Атмoсфернoе давление в разных тoчках местнoсти мoжет значительнo oтличаться oт давления на метеoстанции, в зависимoсти oт услoвий рельефа (при пoдъёме на 10 м давление пoнижается примернo на 1 мм рт.ст.).